Home > Weather > Bergheim > Past weeks

Flag for Germany Weather for the Past 2 Weeks in Bergheim, North Rhine-Westphalia, Germany

Now
61 °F

Partly sunny.


Feels Like: 61 °F
Forecast: 44 / 57 °F
Wind: 3 mph from Northwest

Location: Noervenich

Current Time: May 2, 2016 at 10:01:37 PM

Latest Report: May 2, 2016 at 8:20 PM


Visibility: N/A

Pressure: 30.09 "Hg

Humidity: 55%

Dew Point: 45 °F

Location of BergheimLocation

Historic Weather in Bergheim — Graph

°F

Bergheim Temperature Yesterday

Maximum temperature yesterday: 59 °F (at 6:20 PM)
Minimum temperature yesterday: 41 °F (at 7:20 AM)
Average temperature yesterday: 48 °F

High & Low Weather Summary for the Past Weeks

 TemperatureHumidityPressure
High68 °F (Apr 21, 4:20 PM)100% (Apr 30, 5:20 AM)30.48 "Hg (Apr 30, 5:20 AM)
Low32 °F (Apr 18, 6:20 AM)26% (Apr 21, 4:20 PM)29.53 "Hg (Apr 26, 10:20 AM)
Average46 °F71%30.03 "Hg
* Reported Apr 17 8:20 PM — May 2 8:20 PM, Bergheim, Weather by CustomWeather, © 2016

Note: Actual official high and low records may vary slightly from our data, if they occured in-between our weather recording intervals... More about our weather records

Advertising

Bergheim Weather History for the Previous 24 Hours

Scroll right to see more
 ConditionsComfort  
Time TempWeatherWind HumidityBarometerVisibility
8:20 PM
Mon, May 2
61 °FPartly sunny.3 mph55%30.09 "HgN/A
7:20 PM63 °FPartly sunny.7 mph56%30.09 "HgN/A
6:20 PM66 °FPartly sunny.5 mph46%30.12 "HgN/A
5:20 PM66 °FScattered clouds.2 mph43%30.12 "HgN/A
4:20 PM66 °FPassing clouds.2 mph43%30.15 "HgN/A
3:20 PM66 °FScattered clouds.3 mph43%30.18 "HgN/A
2:20 PM64 °FScattered clouds.1 mph43%30.18 "HgN/A
1:20 PM63 °FPartly sunny.2 mph42%30.21 "HgN/A
12:20 PM61 °FPartly sunny.1 mph55%30.24 "HgN/A
11:20 AM57 °FPartly sunny.2 mph63%30.24 "HgN/A
10:20 AM54 °FScattered clouds.2 mph67%30.27 "HgN/A
9:20 AM50 °FPassing clouds.1 mph71%30.30 "HgN/A
8:20 AM46 °FPassing clouds.No wind76%30.30 "HgN/A
6:20 AM37 °FPassing clouds.No wind93%30.30 "HgN/A
5:20 AM41 °FPassing clouds.5 mph87%30.30 "HgN/A
4:20 AM41 °FPassing clouds.3 mph87%30.30 "HgN/A
3:20 AM41 °FPassing clouds.3 mph87%30.30 "HgN/A
2:20 AM45 °FPassing clouds.3 mph76%30.33 "HgN/A
1:20 AM45 °FPassing clouds.5 mph81%30.33 "HgN/A
12:20 AM45 °FPassing clouds.5 mph87%30.33 "HgN/A
11:20 PM
Sun, May 1
46 °FPassing clouds.5 mph82%30.33 "HgN/A
10:20 PM48 °FPassing clouds.5 mph76%30.33 "HgN/A
Weather by CustomWeather, © 2016

See weather overviewHow to use our weather pages